| time (UTC) | temp C | wind direction | speed KPH | gust KPH | rain 1hr cm | rain 24hr cm | rain mn cm | humidity % | barometer mb |
| 20260901181553 | 31 | 224 | 17.7 | 0.0 | 0.00 | 0.00 | 0.00 | 60 | 988.3 |
| 20260901180058 | 31 | 232 | 20.9 | 0.0 | 0.00 | 0.00 | 0.00 | 60 | 988.3 |
| 20260901174553 | 31 | 229 | 20.9 | 0.0 | 0.00 | 0.00 | 0.00 | 62 | 988.0 |
| 20260901173054 | 31 | 229 | 17.7 | 0.0 | 0.00 | 0.00 | 0.00 | 64 | 988.4 |
| 20260901171554 | 31 | 228 | 16.1 | 0.0 | 0.00 | 0.00 | 0.00 | 64 | 988.4 |
| 20260901170049 | 30 | 231 | 12.9 | 0.0 | 0.00 | 0.00 | 0.00 | 64 | 988.4 |
| 20260901164549 | 30 | 233 | 12.9 | 0.0 | 0.00 | 0.00 | 0.00 | 78 | 988.5 |
| 20260901163054 | 30 | 246 | 12.9 | 0.0 | 0.00 | 0.00 | 0.00 | 79 | 988.0 |
| 20260901161553 | 29 | 247 | 11.3 | 0.0 | 0.00 | 0.00 | 0.00 | 79 | 988.0 |
| 20260901160054 | 28 | 241 | 9.7 | 0.0 | 0.00 | 0.00 | 0.00 | 79 | 988.0 |
| 20260901154552 | 28 | 240 | 9.7 | 0.0 | 0.00 | 0.00 | 0.00 | 89 | 987.7 |
| 20260901153049 | 27 | 235 | 8.0 | 0.0 | 0.00 | 0.00 | 0.00 | 89 | 987.7 |
| 20260901151551 | 26 | 236 | 6.4 | 0.0 | 0.00 | 0.00 | 0.00 | 89 | 987.6 |
| 20260901150049 | 26 | 239 | 6.4 | 0.0 | 0.00 | 0.00 | 0.00 | 89 | 987.6 |
| 20260901144549 | 25 | 232 | 4.8 | 0.0 | 0.00 | 0.00 | 0.00 | 90 | 986.9 |
| 20260901143054 | 25 | 232 | 3.2 | 0.0 | 0.00 | 0.00 | 0.00 | 85 | 988.1 |
| 20260901141554 | 25 | 233 | 6.4 | 0.0 | 0.00 | 0.00 | 0.00 | 83 | 988.7 |
| 20260901140054 | 25 | 222 | 8.0 | 0.0 | 0.00 | 0.00 | 0.00 | 83 | 988.7 |
| 20260901134555 | 25 | 215 | 9.7 | 0.0 | 0.00 | 0.00 | 0.00 | 87 | 987.9 |
| 20260901133054 | 24 | 210 | 9.7 | 0.0 | 0.00 | 0.00 | 0.00 | 87 | 987.9 |
| 20260901131554 | 23 | 201 | 8.0 | 0.0 | 0.00 | 0.00 | 0.00 | 87 | 987.9 |
| 20260901130052 | 23 | 191 | 6.4 | 0.0 | 0.00 | 0.00 | 0.00 | 87 | 987.9 |
| 20260901124608 | 22 | 180 | 6.4 | 0.0 | 0.00 | 0.00 | 0.00 | 92 | 987.4 |
| 20260901123054 | 21 | 121 | 1.6 | 0.0 | 0.00 | 0.00 | 0.00 | 91 | 987.2 |
| 20260901121553 | 21 | 157 | 1.6 | 0.0 | 0.00 | 0.00 | 0.00 | 91 | 987.2 |
| 20260901114553 | 20 | 172 | 4.8 | 0.0 | 0.00 | 0.00 | 0.00 | 89 | 986.4 |
| 20260901113059 | 20 | 187 | 4.8 | 0.0 | 0.00 | 0.00 | 0.00 | 89 | 986.7 |
| 20260901111553 | 20 | 204 | 8.0 | 0.0 | 0.00 | 0.00 | 0.00 | 89 | 986.7 |
| 20260901110058 | 21 | 201 | 8.0 | 0.0 | 0.00 | 0.00 | 0.00 | 89 | 986.7 |
| 20260901104557 | 21 | 211 | 6.4 | 0.0 | 0.00 | 0.00 | 0.00 | 88 | 987.2 |
| 20260901103058 | 21 | 221 | 6.4 | 0.0 | 0.00 | 0.00 | 0.00 | 88 | 987.2 |
| 20260901101600 | 21 | 219 | 6.4 | 0.0 | 0.00 | 0.00 | 0.00 | 88 | 987.1 |
| 20260901094554 | 21 | 227 | 8.0 | 0.0 | 0.00 | 0.00 | 0.00 | 90 | 986.2 |
| 20260901093058 | 21 | 227 | 8.0 | 0.0 | 0.00 | 0.00 | 0.00 | 89 | 986.5 |
| 20260901091600 | 21 | 232 | 8.0 | 0.0 | 0.00 | 0.00 | 0.00 | 89 | 986.5 |
| 20260901090058 | 21 | 225 | 8.0 | 0.0 | 0.00 | 0.00 | 0.00 | 89 | 986.5 |
| 20260901084553 | 21 | 225 | 9.7 | 0.0 | 0.00 | 0.00 | 0.00 | 89 | 986.0 |
| 20260901083058 | 21 | 223 | 8.0 | 0.0 | 0.00 | 0.00 | 0.00 | 89 | 985.6 |
| 20260901081559 | 21 | 226 | 11.3 | 0.0 | 0.00 | 0.00 | 0.00 | 89 | 985.6 |
| 20260901080054 | 21 | 224 | 9.7 | 0.0 | 0.00 | 0.00 | 0.00 | 89 | 986.1 |
| 20260901074559 | 21 | 220 | 9.7 | 0.0 | 0.00 | 0.00 | 0.00 | 89 | 985.7 |
| 20260901073057 | 21 | 222 | 9.7 | 0.0 | 0.00 | 0.00 | 0.00 | 89 | 985.7 |
| 20260901071553 | 21 | 240 | 9.7 | 0.0 | 0.00 | 0.00 | 0.00 | 89 | 985.7 |
| 20260901070053 | 21 | 236 | 9.7 | 0.0 | 0.00 | 0.00 | 0.00 | 89 | 985.7 |
| 20260901064600 | 21 | 233 | 9.7 | 0.0 | 0.00 | 0.00 | 0.00 | 88 | 985.9 |
| 20260901063048 | 22 | 237 | 9.7 | 0.0 | 0.00 | 0.00 | 0.00 | 88 | 985.9 |
| 20260901061555 | 22 | 232 | 9.7 | 0.0 | 0.00 | 0.00 | 0.00 | 88 | 985.9 |
| 20260901060058 | 22 | 221 | 11.3 | 0.0 | 0.00 | 0.00 | 0.00 | 88 | 985.9 |
| 20260901054558 | 22 | 224 | 11.3 | 0.0 | 0.00 | 0.00 | 0.00 | 87 | 986.3 |
| 20260901053059 | 22 | 225 | 9.7 | 0.0 | 0.00 | 0.00 | 0.00 | 86 | 986.0 |
| 20260901051553 | 22 | 234 | 11.3 | 0.0 | 0.00 | 0.00 | 0.00 | 86 | 986.0 |
| 20260901050103 | 22 | 233 | 11.3 | 0.0 | 0.00 | 0.00 | 0.00 | 86 | 986.0 |
| 20260901044558 | 22 | 236 | 9.7 | 0.0 | 0.00 | 0.00 | 0.00 | 84 | 986.4 |
| 20260901043053 | 22 | 244 | 11.3 | 0.0 | 0.00 | 0.00 | 0.00 | 83 | 986.1 |
| 20260901041557 | 22 | 243 | 9.7 | 0.0 | 0.00 | 0.00 | 0.00 | 83 | 986.1 |
| 20260901034557 | 22 | 240 | 8.0 | 0.0 | 0.00 | 0.00 | 0.00 | 83 | 986.2 |
| 20260901033057 | 22 | 225 | 8.0 | 0.0 | 0.00 | 0.00 | 0.00 | 84 | 986.3 |
| 20260901031557 | 22 | 246 | 8.0 | 0.0 | 0.00 | 0.00 | 0.00 | 84 | 986.3 |
| 20260901030057 | 22 | 237 | 6.4 | 0.0 | 0.00 | 0.00 | 0.00 | 84 | 986.3 |
| 20260901024557 | 22 | 223 | 6.4 | 0.0 | 0.00 | 0.00 | 0.00 | 83 | 987.2 |
| 20260901023056 | 22 | 220 | 8.0 | 0.0 | 0.00 | 0.00 | 0.00 | 85 | 986.6 |
| 20260901021555 | 23 | 226 | 12.9 | 0.0 | 0.00 | 0.00 | 0.00 | 85 | 986.6 |
| 20260901014556 | 23 | 218 | 11.3 | 0.0 | 0.00 | 0.00 | 0.00 | 85 | 986.8 |
| 20260901013054 | 23 | 213 | 9.7 | 0.0 | 0.00 | 0.00 | 0.00 | 85 | 986.8 |
| 20260901011556 | 23 | 225 | 9.7 | 0.0 | 0.00 | 0.00 | 0.00 | 85 | 986.7 |
| 20260901010059 | 23 | 233 | 8.0 | 0.0 | 0.00 | 0.00 | 0.00 | 85 | 986.7 |
| 20260901004556 | 23 | 236 | 9.7 | 0.0 | 0.00 | 0.00 | 0.00 | 81 | 986.8 |
| 20260901003055 | 23 | 230 | 9.7 | 0.0 | 0.00 | 0.00 | 0.00 | 81 | 986.2 |
| 20260901001556 | 24 | 221 | 11.3 | 0.0 | 0.00 | 0.00 | 0.00 | 81 | 986.2 |
| 20260901000054 | 25 | 217 | 11.3 | 0.0 | 0.00 | 0.00 | 0.00 | 81 | 986.2 |
| 20260831234557 | 25 | 222 | 9.7 | 0.0 | 0.00 | 0.13 | 0.13 | 76 | 986.5 |
| 20260831233057 | 25 | 217 | 9.7 | 0.0 | 0.00 | 0.13 | 0.13 | 69 | 986.1 |
| 20260831231557 | 26 | 224 | 11.3 | 0.0 | 0.00 | 0.13 | 0.13 | 69 | 986.2 |
| 20260831230059 | 27 | 220 | 11.3 | 0.0 | 0.00 | 0.13 | 0.13 | 69 | 986.2 |
| 20260831224557 | 27 | 216 | 12.9 | 0.0 | 0.00 | 0.13 | 0.13 | 71 | 986.5 |
| 20260831223058 | 28 | 214 | 16.1 | 0.0 | 0.00 | 0.13 | 0.13 | 63 | 986.8 |
| 20260831221553 | 28 | 213 | 17.7 | 0.0 | 0.00 | 0.13 | 0.13 | 63 | 986.8 |
| 20260831220057 | 28 | 211 | 17.7 | 0.0 | 0.00 | 0.13 | 0.13 | 63 | 986.8 |
| 20260831214556 | 28 | 209 | 17.7 | 0.0 | 0.00 | 0.13 | 0.13 | 66 | 987.4 |
| 20260831213054 | 28 | 206 | 17.7 | 0.0 | 0.00 | 0.13 | 0.13 | 63 | 986.9 |
| 20260831211556 | 29 | 207 | 17.7 | 0.0 | 0.00 | 0.13 | 0.13 | 63 | 987.0 |
| 20260831210056 | 29 | 207 | 16.1 | 0.0 | 0.00 | 0.13 | 0.13 | 63 | 987.0 |
| 20260831204554 | 28 | 200 | 16.1 | 0.0 | 0.05 | 0.13 | 0.13 | 72 | 987.9 |
| 20260831203054 | 28 | 196 | 17.7 | 0.0 | 0.05 | 0.13 | 0.13 | 75 | 987.5 |
| 20260831201555 | 27 | 200 | 19.3 | 0.0 | 0.00 | 0.08 | 0.08 | 75 | 987.5 |
| 20260831200056 | 26 | 194 | 17.7 | 0.0 | 0.00 | 0.08 | 0.08 | 81 | 987.8 |
| 20260831194556 | 27 | 203 | 20.9 | 0.0 | 0.08 | 0.08 | 0.08 | 75 | 988.6 |
| 20260831193056 | 26 | 202 | 19.3 | 0.0 | 0.08 | 0.08 | 0.08 | 75 | 988.6 |
| 20260831191556 | 26 | 189 | 20.9 | 0.0 | 0.46 | 0.46 | 0.46 | 75 | 988.6 |
| 20260831190058 | 26 | 222 | 16.1 | 0.0 | 0.46 | 0.46 | 0.46 | 64 | 988.0 |
| 20260831184554 | 28 | 198 | 14.5 | 0.0 | 0.00 | 0.00 | 0.00 | 61 | 988.2 |
| 20260831183055 | 30 | 197 | 19.3 | 0.0 | 0.00 | 0.00 | 0.00 | 61 | 988.3 |